Regional Weather Roundup
Issued by NWS

Home | Current Version | Previous Version | Text Only | Print | Product List | Glossary Off
Versions: 1 2 3 4 5 6 7 8 9 10 11 12 13 14 15 16 17 18 19 20 21 22 23 24 25 26 27 28 29 30 31 32 33 34 35 36 37 38 39 40 41 42 43 44 45 46 47 48 49 50

000
ASUS43 KLOT 300008
RWRIL

ILLINOIS REGIONAL WEATHER ROUNDUP
NATIONAL WEATHER SERVICE CHICAGO/ROMEOVILLE IL
700 PM CDT WED MAR 29 2017

NOTE: "FAIR" INDICATES FEW OR NO CLOUDS BELOW 12,000 FEET WITH NO
SIGNIFICANT WEATHER AND/OR OBSTRUCTIONS TO VISIBILITY.

* THESE STATIONS ARE NOT UNDER NWS QUALITY CONTROL. THEY ALSO MAY NOT
  REPORT WEATHER SUCH AS PRECIPITATION OR FOG.

ILZ001-002-007-009-015-016-024-300100-
NORTHWEST ILLINOIS

CITY           SKY/WX    TMP DP  RH WIND       PRES   REMARKS
MOLINE         CLOUDY    46  41  82 E21       29.98R
6HR MIN TEMP:  46; 6HR MAX TEMP:  49; 6HR PCP:  0.11;

STERLING*      LGT RAIN  43  40  89 E20G25    30.03R
SAVANNA*       RAIN      43  39  88 NE10G23   30.07R
$$

ILZ003-004-008-010-011-017-018-300100-
NORTH CENTRAL ILLINOIS

CITY           SKY/WX    TMP DP  RH WIND       PRES   REMARKS
ROCKFORD       LGT RAIN  44  37  76 NE13      30.11R
6HR MIN TEMP:  44; 6HR MAX TEMP:  49; 6HR PCP:  0.07;

FREEPORT*      LGT RAIN  41  38  87 NE15      30.10F
ROCHELLE*      LGT RAIN  43  39  88 NE15G24   30.06R
DE KALB*       LGT RAIN  43  38  82 NE18      30.05F
PERU*          CLOUDY    45  40  82 E18G26    29.99S
$$

ILZ005-006-012>014-019>023-300100-
NORTHEAST ILLINOIS

CITY           SKY/WX    TMP DP  RH WIND       PRES   REMARKS
CHICAGO-OHARE  LGT RAIN  46  36  68 NE10G21   30.11R
6HR MIN TEMP:  44; 6HR MAX TEMP:  49; 6HR PCP:  0.01;

CHICAGO-MIDWAY LGT RAIN  46  37  71 NE12G24   30.09R
6HR MIN TEMP:  45; 6HR MAX TEMP:  49; 6HR PCP:  0.01;

AURORA         LGT RAIN  46  39  76 NE13      30.06R
6HR MIN TEMP:  46; 6HR MAX TEMP:  52; 6HR PCP:  0.05;

LANSING*       RAIN      50  42  73 E12G17    30.09R
JOLIET*        RAIN      48  41  77 NE9       30.06R
WAUKEGAN       LGT RAIN  40  35  83 N12       30.12R
6HR MIN TEMP:  40; 6HR MAX TEMP:  43; 6HR PCP:  0.01;

DUPAGE AIRPORT LGT RAIN  45  39  79 NE12      30.07R
6HR MIN TEMP:  45; 6HR MAX TEMP:  48; 6HR PCP:  0.03;

KANKAKEE*      CLOUDY    51  41  68 E15       30.02F
WHEELING       CLOUDY    44  36  73 NE9G18    30.14R
6HR MIN TEMP:  42; 6HR MAX TEMP:  45; 6HR PCP: TRACE;

MORRIS*        LGT RAIN  46  41  81 E10       30.03R
ROMEOVILLE*    LGT RAIN  46  42  87 NE9       30.08R
NORTHERLY ISL    N/A     41  36  82 NE12        N/A
$$

LMZ740>746-300100-
SOUTHERN LAKE MICHIGAN

STATION/POSITION SKY/WX   TEMP    WIND        PRES    VSBY  WAVE
                          AIR SEA DIR/SP/G                  HT/PER
                          (F)     (DEG/KT/KT) (MB)    (MI)  (FT/S)
HARRISON CRIB              42      50/ 19/ 20   N/A
BURNHAM HARBOR             41      10/  6/ 17   N/A
CALUMET HARBOR             42      30/  9/ 15 1017.5R
BURNS HARBOR               52     100/ 15     1019.0
MICHIGAN CITY              53      70/ 18/ 22   N/A
$$

ILZ025>027-034>036-040-047-049-050-058-095>099-300100-
WEST-CENTRAL ILLINOIS

CITY           SKY/WX    TMP DP  RH WIND       PRES   REMARKS
QUINCY         LGT RAIN  53  50  89 E16       29.84F
GALESBURG*     CLOUDY    49  43  79 E9G16     29.95R
MACOMB*        CLOUDY    50  45  83 E18       29.94S
JACKSONVILLE*  CLOUDY    54  48  81 E15       29.88S
PITTSFIELD*    CLOUDY    55  51  87 E10G17    29.86F
$$

ILZ028>032-037-038-041>044-048-051>054-059>061-300100-
CENTRAL ILLINOIS

CITY           SKY/WX    TMP DP  RH WIND       PRES   REMARKS
PONTIAC        CLOUDY    50  46  85 E20       29.99R
BLOOMINGTON    LGT RAIN  50  45  83 E18G25    29.94F
DECATUR        CLOUDY    54  46  74 E20       29.91F
PEORIA         CLOUDY    51  43  74 E15G26    29.93S
6HR MIN TEMP:  48; 6HR MAX TEMP:  52; 6HR PCP:  0.11;

LACON*         CLOUDY    48  44  85 E12G18    29.97R
LINCOLN*       CLOUDY    54  46  75 E17       29.91S
SPRINGFIELD    CLOUDY    56  48  74 E18G29    29.90R
6HR MIN TEMP:  51; 6HR MAX TEMP:  56; 6HR PCP:  0.01;

TAYLORVILLE    NOT AVBL
$$

ILZ033-039-045-046-055>057-062-063-300100-
EAST-CENTRAL ILLINOIS

CITY           SKY/WX    TMP DP  RH WIND       PRES   REMARKS
CHAMPAIGN      CLOUDY    55  44  66 E21       29.94F
RANTOUL*       CLOUDY    56  46  69 E16       29.96F
MATTOON        CLOUDY    57  48  72 E12       29.93F
PARIS*         PTCLDY    56  46  67 E17       29.97F
$$

ILZ079-100>102-300100-
SOUTHWEST ILLINOIS

CITY           SKY/WX    TMP DP  RH WIND       PRES   REMARKS
ALTON          CLOUDY    61  52  72 E14G21    29.85F
BELLEVILLE     CLOUDY    65  56  72 E12       29.82F
CAHOKIA*       CLOUDY    67  54  63 E15       29.81F
SPARTA*        MOCLDY    67  56  70 E10G16    29.84F
$$

ILZ064>066-069>071-074>076-080>082-084>086-088>090-092>094-300100-
SOUTH-CENTRAL ILLINOIS

CITY           SKY/WX    TMP DP  RH WIND       PRES   REMARKS
CARBONDALE     CLOUDY    67  59  75 E7        29.83F
6HR MIN TEMP:  63; 6HR MAX TEMP:  72; 6HR PCP:  0.01;

CAIRO*         MOCLDY    71  62  71 E7        29.82S
EFFINGHAM*     MOCLDY    58  50  74 E13       29.93F
MT. VERNON     PTCLDY    66  54  65 E10       29.88F
CENTRALIA*     PTCLDY    64  55  71 E10G17    29.87F
SALEM*         MOCLDY    63  52  66 E8        29.88F
METROPOLIS*    CLOUDY    72  60  66 E3        29.85F
$$

ILZ067-068-072-073-078-083-087-091-300100-
SOUTHEAST ILLINOIS

CITY           SKY/WX    TMP DP  RH WIND       PRES   REMARKS
LAWRENCEVILLE  PTCLDY    61  51  70 E10       29.94F
FLORA*         CLOUDY    63  52  67 E12G17    29.92F
FAIRFIELD*     CLOUDY    63  54  72 NE5       29.89F
HARRISBURG*    CLOUDY    68  57  68 E12       29.87F
ROBINSON*      CLOUDY    60  49  67 E12G17    29.96S
CARMI*         CLOUDY    65  55  68 E8        29.90S
$$

ABBREVIATIONS USED IN REMARKS
   TC - TEMPERATURE IN CELSIUS
  WCI - WIND CHILL INDEX
   HX - HEAT INDEX
  VSB - VISIBILITY
$$




USA.gov is the U.S. government's official web portal to all federal, state and local government web resources and services.